Overview Statistics Trail Chart Weather Telemetry Raw packets
 

This is the latest recevied weather packets stored in our database for station/object SV9TNF-56. If no packets are shown the sender has not sent any weather packets the latest 10 day(s).

<< 88 89 90 91 92 93 94 >>
Time Temp. Humidity Pressure Rain* Wind** Luminosity Snow
1788013313 25° C 54% 1019 hPa 0 mm 20.56 m/s, 149° - -
1788013013 25.56° C 51% 1019 hPa 0 mm 11.18 m/s, 180° - -
1788012713 25.56° C 51% 1019 hPa 0 mm 20.56 m/s, 120° - -
1788012412 25.56° C 47% 1019 hPa 0 mm 12.07 m/s, 97° - -
1788012113 25.56° C 49% 1019.3 hPa 0 mm 8.05 m/s, 213° - -
1788011812 25.56° C 48% 1019.3 hPa 0 mm 22.8 m/s, 181° - -
1788011512 25.56° C 47% 1019.3 hPa 0 mm 9.83 m/s, 154° - -
1788011212 25.56° C 53% 1019.3 hPa 0 mm 7.6 m/s, 169° - -
1788010912 25.56° C 57% 1019.3 hPa 0 mm 13.41 m/s, 132° - -
1788010612 25.56° C 54% 1019.3 hPa 0 mm 9.83 m/s, 275° - -
1788010312 25.56° C 53% 1019.3 hPa 0 mm 22.8 m/s, 195° - -
1788010012 25.56° C 55% 1019 hPa 0 mm 3.58 m/s, 198° - -
1788009712 25.56° C 53% 1019.3 hPa 0 mm 23.69 m/s, 234° - -
1788009412 25.56° C 54% 1019.3 hPa 0 mm 8.94 m/s, 167° - -
1788009112 25.56° C 51% 1019.3 hPa 0 mm 7.6 m/s, 172° - -
1788008812 25.56° C 54% 1019 hPa 0 mm 5.36 m/s, 203° - -
1788008511 25.56° C 57% 1019.3 hPa 0 mm 10.28 m/s, 169° - -
1788008211 25.56° C 58% 1019.3 hPa 0 mm 10.28 m/s, 180° - -
1788007911 25.56° C 55% 1019.6 hPa 0 mm 6.26 m/s, 160° - -
1788007611 25.56° C 55% 1019.6 hPa 0 mm 13.41 m/s, 162° - -
1788007311 25.56° C 54% 1019.6 hPa 0 mm 12.07 m/s, 210° - -
1788007011 25.56° C 57% 1019.6 hPa 0 mm 23.25 m/s, 239° - -
1788006711 25.56° C 55% 1019.6 hPa 0 mm 13.41 m/s, 125° - -
1788006411 25.56° C 55% 1019.6 hPa 0 mm 6.26 m/s, 219° - -
1788006110 25.56° C 56% 1019.6 hPa 0 mm 11.18 m/s, 169° - -

* Rain latest hour (hover to see other rain measurements)
** Current wind speed in m/s (hover to see current wind gust speed)